TimeEDT,TemperatureF,Dew PointF,Humidity,Sea Level PressureIn,VisibilityMPH,Wind Direction,Wind SpeedMPH,Gust SpeedMPH,PrecipitationIn,Events,Conditions,WindDirDegrees,DateUTC
12:15 AM,46.4,44.6,93,29.92,10.0,Calm,Calm,-,0.01,,Overcast,0,2013-04-11 04:15:00
12:35 AM,46.4,46.4,100,29.90,5.0,Calm,Calm,-,0.02,Rain,Rain,0,2013-04-11 04:35:00
12:55 AM,46.4,44.6,93,29.90,8.0,Calm,Calm,-,0.03,,Light Drizzle,0,2013-04-11 04:55:00
1:15 AM,46.4,44.6,93,29.89,10.0,Calm,Calm,-,N/A,,Overcast,0,2013-04-11 05:15:00
1:35 AM,46.4,44.6,93,29.89,10.0,Calm,Calm,-,N/A,,Overcast,0,2013-04-11 05:35:00
1:55 AM,46.4,44.6,93,29.88,10.0,Calm,Calm,-,N/A,,Overcast,0,2013-04-11 05:55:00
2:15 AM,44.6,44.6,100,29.87,10.0,NE,3.5,-,N/A,,Overcast,40,2013-04-11 06:15:00
2:35 AM,44.6,44.6,100,29.85,9.0,Calm,Calm,-,N/A,,Light Drizzle,0,2013-04-11 06:35:00
2:55 AM,44.6,44.6,100,29.83,9.0,ENE,3.5,-,N/A,,Overcast,70,2013-04-11 06:55:00
3:15 AM,44.6,44.6,100,29.85,10.0,Calm,Calm,-,N/A,,Overcast,0,2013-04-11 07:15:00
3:35 AM,44.6,44.6,100,29.86,10.0,Calm,Calm,-,N/A,,Overcast,0,2013-04-11 07:35:00
3:55 AM,44.6,44.6,100,29.85,10.0,North,5.8,-,N/A,,Overcast,360,2013-04-11 07:55:00
4:15 AM,44.6,42.8,93,29.85,10.0,North,3.5,-,N/A,,Overcast,10,2013-04-11 08:15:00
4:35 AM,44.6,42.8,93,29.86,10.0,NNE,4.6,-,N/A,,Overcast,20,2013-04-11 08:35:00
4:55 AM,44.6,42.8,93,29.86,5.0,North,3.5,-,N/A,,Overcast,10,2013-04-11 08:55:00
5:15 AM,44.6,44.6,100,29.85,1.2,North,4.6,-,N/A,,Overcast,360,2013-04-11 09:15:00
5:35 AM,44.6,44.6,100,29.86,1.0,North,3.5,-,N/A,,Light Drizzle,360,2013-04-11 09:35:00
5:55 AM,44.6,44.6,100,29.88,0.8,NNW,4.6,-,N/A,,Light Drizzle,330,2013-04-11 09:55:00
6:15 AM,44.6,44.6,100,29.89,1.0,NW,5.8,-,N/A,,Light Drizzle,320,2013-04-11 10:15:00
6:35 AM,44.6,44.6,100,29.91,0.8,NNW,5.8,-,N/A,,Light Drizzle,330,2013-04-11 10:35:00
6:55 AM,44.6,44.6,100,29.94,1.0,NW,6.9,-,N/A,,Drizzle,320,2013-04-11 10:55:00
7:15 AM,44.6,44.6,100,29.94,1.8,NNW,6.9,-,N/A,,Drizzle,330,2013-04-11 11:15:00
7:35 AM,44.6,44.6,100,29.95,2.0,Calm,Calm,-,N/A,,Drizzle,0,2013-04-11 11:35:00
7:55 AM,44.6,44.6,100,29.96,1.8,NNW,4.6,-,N/A,,Drizzle,330,2013-04-11 11:55:00
8:15 AM,44.6,44.6,100,29.96,1.2,NNW,5.8,-,N/A,,Drizzle,340,2013-04-11 12:15:00
8:35 AM,44.6,44.6,100,29.97,1.5,NNW,8.1,-,N/A,,Heavy Drizzle,330,2013-04-11 12:35:00
8:55 AM,44.6,44.6,100,29.95,3.0,North,6.9,-,N/A,,Heavy Drizzle,360,2013-04-11 12:55:00
9:15 AM,44.6,44.6,100,29.99,1.0,NW,5.8,-,N/A,,Heavy Drizzle,320,2013-04-11 13:15:00
9:35 AM,44.6,44.6,100,30.01,10.0,NNW,3.5,-,N/A,,Drizzle,340,2013-04-11 13:35:00
9:55 AM,44.6,44.6,100,30.01,10.0,North,5.8,-,N/A,,Overcast,360,2013-04-11 13:55:00
10:15 AM,46.4,44.6,93,30.00,10.0,North,5.8,-,N/A,,Overcast,360,2013-04-11 14:15:00
10:35 AM,46.4,44.6,93,30.01,10.0,North,6.9,-,N/A,,Overcast,360,2013-04-11 14:35:00
10:55 AM,46.4,44.6,93,30.02,10.0,North,5.8,-,N/A,,Overcast,10,2013-04-11 14:55:00
11:15 AM,46.4,42.8,87,30.02,10.0,North,8.1,-,N/A,,Mostly Cloudy,360,2013-04-11 15:15:00
11:35 AM,46.4,42.8,87,30.03,10.0,North,4.6,-,N/A,,Overcast,360,2013-04-11 15:35:00
11:55 AM,46.4,42.8,87,30.05,10.0,North,4.6,-,N/A,,Overcast,360,2013-04-11 15:55:00
12:15 PM,46.4,42.8,87,30.05,10.0,NE,5.8,-,N/A,,Overcast,50,2013-04-11 16:15:00
12:35 PM,48.2,42.8,82,30.04,10.0,North,8.1,-,N/A,,Overcast,10,2013-04-11 16:35:00
1:15 PM,46.4,42.8,87,30.04,10.0,NNE,9.2,-,N/A,,Mostly Cloudy,20,2013-04-11 17:15:00
1:35 PM,48.2,41.0,76,30.06,10.0,North,6.9,-,N/A,,Scattered Clouds,360,2013-04-11 17:35:00
1:55 PM,48.2,39.2,71,30.06,10.0,North,8.1,-,N/A,,Scattered Clouds,360,2013-04-11 17:55:00
2:15 PM,48.2,41.0,76,30.06,10.0,North,6.9,16.1,N/A,,Scattered Clouds,360,2013-04-11 18:15:00
2:35 PM,48.2,39.2,71,30.05,10.0,NE,10.4,-,N/A,,Scattered Clouds,50,2013-04-11 18:35:00
2:55 PM,48.2,37.4,66,30.06,10.0,NE,9.2,-,N/A,,Partly Cloudy,40,2013-04-11 18:55:00
3:15 PM,46.4,39.2,76,30.05,10.0,NE,9.2,-,N/A,,Scattered Clouds,50,2013-04-11 19:15:00
3:35 PM,46.4,37.4,71,30.05,10.0,NE,9.2,-,N/A,,Scattered Clouds,50,2013-04-11 19:35:00
3:55 PM,46.4,35.6,66,30.05,10.0,ENE,9.2,-,N/A,,Scattered Clouds,70,2013-04-11 19:55:00
4:15 PM,46.4,37.4,71,30.05,8.0,ENE,8.1,-,N/A,,Mostly Cloudy,70,2013-04-11 20:15:00
4:35 PM,46.4,37.4,71,30.05,10.0,ENE,9.2,-,N/A,,Overcast,70,2013-04-11 20:35:00
4:55 PM,46.4,37.4,71,30.05,10.0,East,6.9,-,N/A,,Overcast,100,2013-04-11 20:55:00
5:15 PM,44.6,37.4,76,30.06,10.0,East,5.8,-,N/A,,Overcast,100,2013-04-11 21:15:00
5:35 PM,46.4,37.4,71,30.07,10.0,East,5.8,-,N/A,,Overcast,100,2013-04-11 21:35:00
5:55 PM,46.4,39.2,76,30.07,10.0,East,6.9,-,N/A,,Overcast,90,2013-04-11 21:55:00
6:15 PM,44.6,37.4,76,30.09,10.0,ENE,4.6,-,N/A,,Overcast,70,2013-04-11 22:15:00
6:35 PM,44.6,37.4,76,30.09,10.0,East,5.8,-,N/A,,Overcast,90,2013-04-11 22:35:00
6:55 PM,44.6,39.2,81,30.09,10.0,East,4.6,-,N/A,,Overcast,80,2013-04-11 22:55:00
7:15 PM,44.6,37.4,76,30.10,10.0,East,3.5,-,N/A,,Overcast,100,2013-04-11 23:15:00
7:35 PM,44.6,37.4,76,30.11,10.0,ENE,3.5,-,N/A,,Overcast,70,2013-04-11 23:35:00
7:55 PM,44.6,37.4,76,30.10,10.0,East,3.5,-,N/A,,Overcast,90,2013-04-11 23:55:00
8:15 PM,44.6,37.4,76,30.10,10.0,NE,4.6,-,N/A,,Overcast,50,2013-04-12 00:15:00
8:35 PM,46.4,37.4,71,30.10,10.0,East,3.5,-,N/A,,Overcast,80,2013-04-12 00:35:00
8:55 PM,44.6,37.4,76,30.11,10.0,East,3.5,-,N/A,,Overcast,90,2013-04-12 00:55:00
9:15 PM,44.6,35.6,71,30.12,10.0,East,3.5,-,N/A,,Overcast,80,2013-04-12 01:15:00
9:35 PM,46.4,37.4,71,30.13,10.0,East,3.5,-,N/A,,Overcast,80,2013-04-12 01:35:00
9:55 PM,44.6,39.2,81,30.14,10.0,East,3.5,-,N/A,,Overcast,80,2013-04-12 01:55:00
10:15 PM,44.6,37.4,76,30.15,10.0,Calm,Calm,-,N/A,,Overcast,0,2013-04-12 02:15:00
10:35 PM,44.6,37.4,76,30.14,10.0,ENE,3.5,-,N/A,,Overcast,70,2013-04-12 02:35:00
10:55 PM,44.6,37.4,76,30.15,10.0,Calm,Calm,-,N/A,,Overcast,0,2013-04-12 02:55:00
11:15 PM,44.6,39.2,81,30.15,10.0,NNE,3.5,-,N/A,,Overcast,30,2013-04-12 03:15:00
11:35 PM,44.6,39.2,81,30.15,10.0,NNE,3.5,-,N/A,,Overcast,20,2013-04-12 03:35:00
11:55 PM,44.6,39.2,81,30.15,10.0,NE,5.8,-,N/A,,Overcast,50,2013-04-12 03:55:00